sat.trackr.live / text

‹ back to catalog

STARLINK-2657

NORAD 48655 · 2021-044T

PAYLOAD ACTIVE UNKNOWN

§ Identity

Operator
Country
US
Launch date
2021-05-26
Launch site
AFETR
Launch vehicle
Mass (kg)
RCS (m²)

Purposes: comms

External: N2YO · Heavens-Above · Gunter

§ Orbital elements

Epoch: 2026-09-19T14:02:22.580448Z

Period
94.01 min
Inclination
53.1619°
Eccentricity
0.0001262
Mean motion
15.31707035 rev/d
Perigee alt
469.9 km
Apogee alt
471.6 km
Semi-major
6,848.9 km
B*
7.0756e-5
RAAN
291.6422°
Arg perigee
90.2721°
Mean anomaly
269.8425°
Rev number
29,353

§ Raw data

STARLINK-26571 48655U 21044T   26262.58498357  .00001832  00000+0  70756-4 0  99982 48655  53.1619 291.6422 0001262  90.2721 269.8425 15.31707035293533

JSON: /api/v1/satellites/48655 · /tle

For live sub-satellite position, see the globe view (requires WebGL).

§ Visibility from observer

Set your observer location to see the next 7 days of passes ≥ 10°. The values pass through the URL so the page stays shareable.

No JS? Fill the form by hand. The geolocation button needs JavaScript.